Hourly Data Report for October 12, 2017

All times are specified in Local Standard Time (LST). Add 1 hour to adjust for Daylight Saving Time where and when it is observed.

OTTAWA INTL A
ONTARIO

45°19'00.000" N
75°40'00.000" W
114.90 m
6106001
71628
YOW

Download Data

Hourly Data (October 2017)
Hourly Data Report for October 12, 2017
Temp Definition
°C
Dew Point Temp Definition
°C
Rel Hum Definition
%
Wind Dir Definition
10's deg

Wind Spd Definition
km/h
Visibility Definition
km
Stn Press Definition
kPa
Hmdx Definition


Wind Chill Definition


Weather Definition


TIME
00:00 Legend Double Dagger 4.8 3.2 89 4 13 24.1 101.56     LegendNANA
01:00 Legend Double Dagger 4.5 2.4 86 4 15 24.1 101.58     Mainly Clear
02:00 Legend Double Dagger 3.0 1.1 87 4 14 24.1 101.60     LegendNANA
03:00 Legend Double Dagger 2.4 0.1 85 6 10 24.1 101.63     LegendNANA
04:00 Legend Double Dagger 2.1 0.0 86 4 11 24.1 101.68     Clear
05:00 Legend Double Dagger 1.1 -0.4 90 4 14 24.1 101.67     LegendNANA
06:00 Legend Double Dagger 1.4 -0.3 88 5 13 24.1 101.69     LegendNANA
07:00 Legend Double Dagger 2.6 0.7 87 4 17 24.1 101.77     Clear
08:00 Legend Double Dagger 6.3 2.9 79 5 16 24.1 101.80     LegendNANA
09:00 Legend Double Dagger 9.2 3.3 67 7 16 24.1 101.79     LegendNANA
10:00 Legend Double Dagger 11.8 2.6 53 7 16 24.1 101.81     Clear
11:00 Legend Double Dagger 13.1 2.0 47 9 24 24.1 101.79     LegendNANA
12:00 Legend Double Dagger 14.2 1.8 43 9 23 24.1 101.76     LegendNANA
13:00 Legend Double Dagger 15.0 2.2 42 11 19 24.1 101.68     Clear
14:00 Legend Double Dagger 15.3 1.4 39 8 21 24.1 101.58     LegendNANA
15:00 Legend Double Dagger 15.2 1.1 38 9 22 24.1 101.52     LegendNANA
16:00 Legend Double Dagger 14.5 1.4 41 10 21 24.1 101.51     Mainly Clear
17:00 Legend Double Dagger 12.5 2.2 49 6 10 24.1 101.49     LegendNANA
18:00 Legend Double Dagger 10.0 2.0 57 6 10 24.1 101.52     LegendNANA
19:00 Legend Double Dagger 9.0 2.6 64 6 13 24.1 101.51     Mainly Clear
20:00 Legend Double Dagger 8.9 2.7 65 6 17 24.1 101.50     LegendNANA
21:00 Legend Double Dagger 7.9 2.8 70 6 18 24.1 101.51     LegendNANA
22:00 Legend Double Dagger 7.5 3.0 73 7 20 24.1 101.47     Clear
23:00 Legend Double Dagger 7.1 3.1 76 8 16 24.1 101.48     LegendNANA

Notes on Data Quality.

Legend

  • E = Estimated
  • M = Missing
  • NA = Not Available
  • ‡ = Partner data that is not subject to review by the National Climate Archives
Date modified: